| time (UTC) | temp F | wind direction | speed MPH | gust MPH | rain 1hr in | rain 24hr in | rain mn in | humidity % | barometer mb |
| 20260904205521 | 78 | 0.0 | 0.0 | 0.00 | 0.80 | 0.01 | 67 | 1012.1 | |
| 20260904204521 | 78 | 0.0 | 1.0 | 0.00 | 0.92 | 0.01 | 65 | 1012.3 | |
| 20260904203521 | 78 | 0.0 | 2.0 | 0.00 | 0.92 | 0.01 | 65 | 1012.2 | |
| 20260904202521 | 79 | 0.0 | 3.0 | 0.00 | 0.92 | 0.01 | 65 | 1012.2 | |
| 20260904201521 | 79 | 0.0 | 2.0 | 0.00 | 0.92 | 0.01 | 65 | 1012.3 | |
| 20260904200521 | 80 | 0.0 | 0.0 | 0.00 | 0.92 | 0.01 | 66 | 1012.4 | |
| 20260904195520 | 80 | 0.0 | 2.0 | 0.00 | 0.92 | 0.01 | 63 | 1012.6 | |
| 20260904194521 | 81 | 0.0 | 0.0 | 0.00 | 0.92 | 0.01 | 62 | 1012.7 | |
| 20260904193521 | 82 | 45 | 1.0 | 5.0 | 0.00 | 0.92 | 0.01 | 64 | 1012.9 |
| 20260904192521 | 82 | 0.0 | 4.0 | 0.00 | 0.92 | 0.01 | 65 | 1013.0 | |
| 20260904191519 | 81 | 0.0 | 2.0 | 0.00 | 0.92 | 0.01 | 66 | 1013.0 | |
| 20260904190521 | 81 | 0.0 | 4.0 | 0.00 | 0.92 | 0.01 | 63 | 1013.2 | |
| 20260904185521 | 81 | 0.0 | 5.0 | 0.00 | 0.92 | 0.01 | 63 | 1013.2 | |
| 20260904184521 | 81 | 225 | 1.0 | 7.0 | 0.00 | 0.92 | 0.01 | 60 | 1013.3 |
| 20260904183541 | 80 | 0.0 | 0.0 | 0.00 | 0.92 | 0.01 | 62 | 1013.3 | |
| 20260904182521 | 80 | 0.0 | 0.0 | 0.00 | 0.92 | 0.01 | 66 | 1013.4 | |
| 20260904181520 | 80 | 0.0 | 0.0 | 0.00 | 0.92 | 0.01 | 68 | 1013.5 | |
| 20260904180521 | 80 | 0.0 | 2.0 | 0.00 | 0.92 | 0.01 | 64 | 1013.6 | |
| 20260904175521 | 80 | 0.0 | 1.0 | 0.00 | 0.92 | 0.01 | 63 | 1013.6 | |
| 20260904174541 | 80 | 0.0 | 2.0 | 0.00 | 0.92 | 0.01 | 71 | 1013.5 | |
| 20260904173521 | 80 | 0.0 | 1.0 | 0.00 | 0.92 | 0.01 | 72 | 1013.8 | |
| 20260904172601 | 79 | 0.0 | 3.0 | 0.00 | 0.92 | 0.01 | 72 | 1013.9 | |
| 20260904171521 | 79 | 0.0 | 0.0 | 0.00 | 0.92 | 0.01 | 72 | 1014.0 | |
| 20260904170541 | 79 | 0.0 | 3.0 | 0.00 | 0.92 | 0.01 | 73 | 1014.1 | |
| 20260904165521 | 78 | 0.0 | 0.0 | 0.00 | 0.92 | 0.01 | 75 | 1014.1 | |
| 20260904164521 | 78 | 0.0 | 3.0 | 0.01 | 0.92 | 0.01 | 75 | 1014.1 | |
| 20260904163521 | 77 | 0.0 | 0.0 | 0.01 | 0.92 | 0.01 | 82 | 1014.1 | |
| 20260904162521 | 77 | 0.0 | 0.0 | 0.01 | 0.92 | 0.01 | 82 | 1014.2 | |
| 20260904161521 | 77 | 0.0 | 3.0 | 0.01 | 0.92 | 0.01 | 83 | 1014.1 | |
| 20260904160521 | 76 | 113 | 1.0 | 6.0 | 0.01 | 0.92 | 0.01 | 86 | 1014.2 |
| 20260904155520 | 75 | 0.0 | 2.0 | 0.01 | 0.92 | 0.01 | 91 | 1014.2 | |
| 20260904154525 | 73 | 0.0 | 2.0 | 0.00 | 0.91 | 0.00 | 94 | 1014.1 | |
| 20260904153520 | 72 | 45 | 1.0 | 4.0 | 0.00 | 0.91 | 0.00 | 97 | 1014.0 |
| 20260904152520 | 70 | 0.0 | 2.0 | 0.00 | 0.91 | 0.00 | 97 | 1014.1 | |
| 20260904151521 | 70 | 0.0 | 0.0 | 0.00 | 0.91 | 0.00 | 97 | 1013.9 | |
| 20260904150521 | 69 | 0.0 | 0.0 | 0.00 | 0.91 | 0.00 | 97 | 1013.9 | |
| 20260904145520 | 69 | 0.0 | 0.0 | 0.00 | 0.91 | 0.00 | 97 | 1013.9 | |
| 20260904144541 | 69 | 0.0 | 3.0 | 0.00 | 0.91 | 0.00 | 97 | 1013.8 | |
| 20260904143520 | 69 | 0.0 | 0.0 | 0.00 | 0.91 | 0.00 | 97 | 1013.8 | |
| 20260904142521 | 68 | 0.0 | 0.0 | 0.00 | 0.91 | 0.00 | 97 | 1014.2 | |
| 20260904141521 | 68 | 0.0 | 0.0 | 0.00 | 0.91 | 0.00 | 97 | 1014.1 | |
| 20260904140521 | 68 | 0.0 | 0.0 | 0.00 | 0.91 | 0.00 | 97 | 1014.2 | |
| 20260904135520 | 68 | 0.0 | 0.0 | 0.00 | 0.91 | 0.00 | 97 | 1014.3 | |
| 20260904134521 | 68 | 0.0 | 0.0 | 0.00 | 0.91 | 0.00 | 97 | 1014.3 | |
| 20260904133621 | 68 | 0.0 | 0.0 | 0.00 | 0.91 | 0.00 | 97 | 1014.3 | |
| 20260904132521 | 67 | 0.0 | 0.0 | 0.00 | 0.91 | 0.00 | 97 | 1014.1 | |
| 20260904131521 | 67 | 0.0 | 0.0 | 0.00 | 0.91 | 0.00 | 97 | 1014.1 | |
| 20260904130520 | 66 | 0.0 | 0.0 | 0.00 | 0.91 | 0.00 | 96 | 1014.5 | |
| 20260904125520 | 65 | 0.0 | 0.0 | 0.00 | 0.91 | 0.00 | 96 | 1014.4 | |
| 20260904124521 | 65 | 0.0 | 0.0 | 0.00 | 0.91 | 0.00 | 96 | 1014.3 | |
| 20260904123520 | 65 | 0.0 | 0.0 | 0.00 | 0.91 | 0.00 | 95 | 1014.2 | |
| 20260904122541 | 65 | 0.0 | 0.0 | 0.00 | 0.91 | 0.00 | 95 | 1014.0 | |
| 20260904121520 | 64 | 0.0 | 0.0 | 0.00 | 0.91 | 0.00 | 95 | 1014.0 | |
| 20260904120521 | 64 | 0.0 | 0.0 | 0.00 | 0.91 | 0.00 | 95 | 1014.1 | |
| 20260904115540 | 64 | 0.0 | 0.0 | 0.00 | 0.91 | 0.00 | 95 | 1014.0 | |
| 20260904114521 | 64 | 0.0 | 0.0 | 0.00 | 0.91 | 0.00 | 95 | 1014.1 | |
| 20260904113520 | 64 | 0.0 | 0.0 | 0.00 | 0.91 | 0.00 | 95 | 1014.1 | |
| 20260904112520 | 64 | 0.0 | 0.0 | 0.00 | 0.91 | 0.00 | 95 | 1014.0 | |
| 20260904111521 | 64 | 0.0 | 0.0 | 0.00 | 0.91 | 0.00 | 94 | 1013.9 | |
| 20260904110521 | 64 | 0.0 | 0.0 | 0.00 | 0.91 | 0.00 | 94 | 1013.9 | |
| 20260904105540 | 64 | 0.0 | 0.0 | 0.00 | 0.91 | 0.00 | 94 | 1013.8 | |
| 20260904104520 | 65 | 0.0 | 0.0 | 0.00 | 0.92 | 0.00 | 94 | 1013.7 | |
| 20260904103520 | 65 | 0.0 | 0.0 | 0.00 | 0.92 | 0.00 | 94 | 1013.7 | |
| 20260904102520 | 65 | 0.0 | 0.0 | 0.00 | 0.92 | 0.00 | 94 | 1013.5 | |
| 20260904101521 | 65 | 0.0 | 0.0 | 0.00 | 0.92 | 0.00 | 94 | 1013.4 | |
| 20260904100520 | 66 | 0.0 | 0.0 | 0.00 | 0.92 | 0.00 | 94 | 1013.3 | |
| 20260904095521 | 66 | 0.0 | 0.0 | 0.00 | 0.92 | 0.00 | 94 | 1013.3 | |
| 20260904094600 | 66 | 0.0 | 0.0 | 0.00 | 0.92 | 0.00 | 94 | 1013.3 | |
| 20260904093520 | 66 | 0.0 | 0.0 | 0.00 | 0.92 | 0.00 | 94 | 1013.3 | |
| 20260904092520 | 66 | 0.0 | 0.0 | 0.00 | 0.92 | 0.00 | 95 | 1013.2 | |
| 20260904091520 | 66 | 0.0 | 0.0 | 0.00 | 0.92 | 0.00 | 95 | 1013.1 | |
| 20260904090521 | 66 | 0.0 | 0.0 | 0.00 | 0.92 | 0.00 | 94 | 1013.1 | |
| 20260904085520 | 67 | 0.0 | 0.0 | 0.00 | 0.92 | 0.00 | 94 | 1013.0 | |
| 20260904084540 | 67 | 0.0 | 0.0 | 0.00 | 0.92 | 0.00 | 94 | 1013.0 | |
| 20260904083520 | 67 | 0.0 | 0.0 | 0.00 | 0.92 | 0.00 | 94 | 1013.0 | |
| 20260904082540 | 67 | 0.0 | 0.0 | 0.00 | 0.92 | 0.00 | 94 | 1012.8 | |
| 20260904081520 | 67 | 0.0 | 0.0 | 0.00 | 0.92 | 0.00 | 94 | 1012.7 | |
| 20260904080520 | 67 | 0.0 | 0.0 | 0.00 | 0.92 | 0.00 | 94 | 1012.6 | |
| 20260904075520 | 67 | 0.0 | 0.0 | 0.00 | 0.92 | 0.00 | 94 | 1012.6 | |
| 20260904074521 | 67 | 0.0 | 0.0 | 0.00 | 0.92 | 0.00 | 94 | 1012.5 | |
| 20260904073520 | 67 | 0.0 | 0.0 | 0.00 | 0.92 | 0.00 | 94 | 1012.6 | |
| 20260904072520 | 68 | 0.0 | 0.0 | 0.00 | 0.92 | 0.00 | 94 | 1012.5 | |
| 20260904071520 | 68 | 0.0 | 0.0 | 0.00 | 0.92 | 0.00 | 94 | 1012.5 | |
| 20260904070520 | 68 | 0.0 | 0.0 | 0.00 | 0.92 | 0.00 | 94 | 1012.5 | |
| 20260904065520 | 68 | 0.0 | 0.0 | 0.00 | 0.92 | 0.00 | 94 | 1012.4 | |
| 20260904064520 | 69 | 0.0 | 0.0 | 0.00 | 0.92 | 0.00 | 94 | 1012.3 | |
| 20260904063520 | 69 | 0.0 | 0.0 | 0.00 | 0.92 | 0.00 | 94 | 1012.4 | |
| 20260904062540 | 69 | 0.0 | 0.0 | 0.00 | 0.92 | 0.00 | 94 | 1012.5 | |
| 20260904061520 | 69 | 0.0 | 0.0 | 0.00 | 0.92 | 0.00 | 95 | 1012.5 | |
| 20260904060600 | 69 | 0.0 | 0.0 | 0.00 | 0.92 | 0.00 | 94 | 1012.5 | |
| 20260904055520 | 69 | 0.0 | 0.0 | 0.00 | 0.92 | 0.00 | 94 | 1012.7 | |
| 20260904054520 | 69 | 0.0 | 0.0 | 0.00 | 0.92 | 0.00 | 94 | 1012.6 | |
| 20260904053520 | 70 | 0.0 | 0.0 | 0.00 | 0.92 | 0.00 | 94 | 1012.7 | |
| 20260904052540 | 70 | 0.0 | 0.0 | 0.00 | 0.92 | 0.00 | 94 | 1012.8 | |
| 20260904051520 | 70 | 0.0 | 0.0 | 0.00 | 0.92 | 0.00 | 94 | 1012.8 | |
| 20260904050520 | 70 | 0.0 | 0.0 | 0.00 | 0.92 | 0.00 | 94 | 1012.8 | |
| 20260904045520 | 70 | 0.0 | 0.0 | 0.00 | 0.92 | 0.00 | 94 | 1012.9 | |
| 20260904044520 | 69 | 0.0 | 0.0 | 0.00 | 0.92 | 0.00 | 93 | 1012.9 | |
| 20260904043520 | 69 | 0.0 | 0.0 | 0.00 | 0.92 | 0.00 | 93 | 1012.9 | |
| 20260904042520 | 69 | 0.0 | 0.0 | 0.00 | 0.92 | 0.00 | 93 | 1012.8 | |
| 20260904041520 | 69 | 0.0 | 0.0 | 0.00 | 0.92 | 0.00 | 93 | 1012.7 | |
| 20260904040520 | 69 | 0.0 | 0.0 | 0.00 | 0.92 | 0.00 | 93 | 1012.7 | |
| 20260904035522 | 69 | 0.0 | 0.0 | 0.00 | 0.92 | 0.92 | 93 | 1012.6 | |
| 20260904034519 | 70 | 0.0 | 0.0 | 0.00 | 0.92 | 0.92 | 92 | 1012.7 | |
| 20260904033519 | 70 | 0.0 | 0.0 | 0.00 | 0.92 | 0.92 | 92 | 1012.6 | |
| 20260904032519 | 70 | 0.0 | 0.0 | 0.00 | 0.92 | 0.92 | 92 | 1012.5 | |
| 20260904031519 | 70 | 0.0 | 0.0 | 0.00 | 0.92 | 0.92 | 92 | 1012.3 | |
| 20260904030519 | 70 | 0.0 | 0.0 | 0.00 | 0.92 | 0.92 | 92 | 1012.2 | |
| 20260904025519 | 70 | 0.0 | 0.0 | 0.02 | 0.92 | 0.92 | 92 | 1012.3 | |
| 20260904024519 | 71 | 0.0 | 0.0 | 0.08 | 0.92 | 0.92 | 92 | 1012.3 | |
| 20260904023519 | 71 | 0.0 | 0.0 | 0.17 | 0.92 | 0.92 | 92 | 1012.4 | |
| 20260904022539 | 71 | 0.0 | 0.0 | 0.28 | 0.96 | 0.92 | 92 | 1012.5 | |
| 20260904021519 | 71 | 0.0 | 0.0 | 0.40 | 0.97 | 0.92 | 92 | 1012.5 | |
| 20260904020559 | 72 | 0.0 | 0.0 | 0.51 | 0.98 | 0.92 | 92 | 1012.5 | |
| 20260904015519 | 72 | 0.0 | 0.0 | 0.61 | 0.96 | 0.90 | 92 | 1012.3 | |
| 20260904014539 | 72 | 0.0 | 0.0 | 0.59 | 0.93 | 0.84 | 92 | 1012.3 | |
| 20260904013519 | 72 | 0.0 | 0.0 | 0.50 | 0.87 | 0.75 | 92 | 1012.3 | |
| 20260904012530 | 73 | 0.0 | 0.0 | 0.39 | 0.76 | 0.64 | 92 | 1012.3 | |
| 20260904011542 | 73 | 0.0 | 2.0 | 0.27 | 0.64 | 0.52 | 92 | 1012.6 | |
| 20260904010603 | 74 | 0.0 | 0.0 | 0.16 | 0.54 | 0.41 | 93 | 1012.4 | |
| 20260904005552 | 74 | 0.0 | 0.0 | 0.04 | 0.43 | 0.29 | 93 | 1012.3 | |
| 20260904004526 | 74 | 0.0 | 0.0 | 0.00 | 0.40 | 0.25 | 92 | 1011.8 | |
| 20260904003519 | 74 | 0.0 | 0.0 | 0.00 | 0.42 | 0.25 | 91 | 1011.8 | |
| 20260904002539 | 74 | 0.0 | 0.0 | 0.00 | 0.44 | 0.25 | 91 | 1011.6 | |
| 20260904001519 | 74 | 0.0 | 0.0 | 0.00 | 0.47 | 0.25 | 91 | 1011.7 | |
| 20260904000519 | 74 | 0.0 | 0.0 | 0.00 | 0.53 | 0.25 | 91 | 1011.8 | |
| 20260903235519 | 74 | 0.0 | 0.0 | 0.00 | 0.71 | 0.25 | 91 | 1011.8 | |
| 20260903234519 | 74 | 0.0 | 0.0 | 0.00 | 1.18 | 0.25 | 91 | 1011.8 | |
| 20260903233539 | 74 | 0.0 | 0.0 | 0.00 | 1.77 | 0.25 | 91 | 1011.8 | |
| 20260903232519 | 75 | 0.0 | 0.0 | 0.00 | 1.94 | 0.25 | 90 | 1011.8 | |
| 20260903231520 | 75 | 0.0 | 0.0 | 0.00 | 1.94 | 0.25 | 90 | 1012.0 | |
| 20260903230519 | 75 | 0.0 | 0.0 | 0.00 | 2.03 | 0.25 | 90 | 1011.8 | |
| 20260903225519 | 75 | 0.0 | 0.0 | 0.00 | 2.03 | 0.25 | 90 | 1011.8 | |
| 20260903224520 | 75 | 0.0 | 0.0 | 0.00 | 2.03 | 0.25 | 90 | 1011.7 | |
| 20260903223519 | 75 | 0.0 | 0.0 | 0.00 | 2.03 | 0.25 | 91 | 1011.6 | |
| 20260903222519 | 75 | 0.0 | 0.0 | 0.00 | 2.03 | 0.25 | 90 | 1011.4 | |
| 20260903221519 | 75 | 0.0 | 0.0 | 0.00 | 2.03 | 0.25 | 90 | 1011.5 | |
| 20260903220521 | 75 | 0.0 | 0.0 | 0.01 | 2.03 | 0.25 | 89 | 1011.3 | |
| 20260903215519 | 75 | 0.0 | 0.0 | 0.12 | 2.03 | 0.25 | 89 | 1011.4 | |
| 20260903214519 | 75 | 0.0 | 0.0 | 0.24 | 2.03 | 0.25 | 88 | 1011.5 | |
| 20260903213518 | 75 | 0.0 | 0.0 | 0.24 | 2.03 | 0.25 | 88 | 1011.5 | |
| 20260903212519 | 75 | 0.0 | 0.0 | 0.24 | 2.03 | 0.25 | 86 | 1011.6 | |
| 20260903211559 | 75 | 0.0 | 0.0 | 0.24 | 2.03 | 0.25 | 87 | 1011.6 | |
| 20260903210519 | 76 | 0.0 | 0.0 | 0.23 | 2.02 | 0.24 | 86 | 1011.6 |